TimeCST,TemperatureF,Dew PointF,Humidity,Sea Level PressureIn,VisibilityMPH,Wind Direction,Wind SpeedMPH,Gust SpeedMPH,PrecipitationIn,Events,Conditions,WindDirDegrees,DateUTC
12:56 AM,46.9,36.0,66,30.29,10.0,South,8.1,-,N/A,,Clear,170,2013-02-18 06:56:00
1:56 AM,48.0,37.0,66,30.28,10.0,South,8.1,-,N/A,,Clear,170,2013-02-18 07:56:00
2:56 AM,50.0,37.0,61,30.27,10.0,South,8.1,-,N/A,,Clear,170,2013-02-18 08:56:00
3:56 AM,48.9,37.9,66,30.26,10.0,SSE,8.1,-,N/A,,Clear,160,2013-02-18 09:56:00
4:56 AM,51.1,37.9,61,30.27,10.0,SSE,9.2,-,N/A,,Clear,160,2013-02-18 10:56:00
5:56 AM,53.1,39.0,59,30.28,10.0,South,11.5,-,N/A,,Clear,170,2013-02-18 11:56:00
6:56 AM,54.0,39.9,59,30.28,10.0,SSE,13.8,-,N/A,,Clear,160,2013-02-18 12:56:00
7:56 AM,57.9,41.0,53,30.30,10.0,SSE,11.5,-,N/A,,Clear,160,2013-02-18 13:56:00
8:56 AM,60.1,41.0,49,30.31,10.0,SSE,15.0,-,N/A,,Clear,150,2013-02-18 14:56:00
9:56 AM,62.1,39.9,44,30.31,10.0,SSE,15.0,23.0,N/A,,Clear,150,2013-02-18 15:56:00
10:56 AM,62.1,42.1,48,30.32,10.0,SE,16.1,-,N/A,,Clear,140,2013-02-18 16:56:00
11:56 AM,62.1,43.0,50,30.30,10.0,SSE,13.8,-,N/A,,Partly Cloudy,150,2013-02-18 17:56:00
12:56 PM,60.1,42.1,51,30.28,10.0,SSE,15.0,24.2,N/A,,Mostly Cloudy,150,2013-02-18 18:56:00
1:56 PM,62.1,43.0,50,30.24,10.0,SE,17.3,23.0,N/A,,Mostly Cloudy,140,2013-02-18 19:56:00
2:56 PM,62.1,44.1,52,30.21,10.0,SE,16.1,27.6,N/A,,Clear,130,2013-02-18 20:56:00
3:56 PM,61.0,44.1,54,30.18,10.0,SE,18.4,26.5,N/A,,Scattered Clouds,130,2013-02-18 21:56:00
4:56 PM,59.0,45.0,60,30.17,10.0,SE,17.3,23.0,N/A,,Clear,140,2013-02-18 22:56:00
5:56 PM,59.0,46.0,62,30.16,10.0,SE,17.3,24.2,N/A,,Mostly Cloudy,140,2013-02-18 23:56:00
6:56 PM,60.1,48.0,64,30.16,10.0,SSE,19.6,26.5,N/A,,Overcast,150,2013-02-19 00:56:00
7:56 PM,59.0,50.0,72,30.15,10.0,SE,20.7,25.3,0.00,,Overcast,140,2013-02-19 01:56:00
8:56 PM,61.0,51.1,70,30.15,10.0,SSE,19.6,26.5,N/A,,Overcast,160,2013-02-19 02:56:00
9:56 PM,61.0,51.1,70,30.12,10.0,SSE,21.9,-,N/A,,Overcast,160,2013-02-19 03:56:00
10:56 PM,61.0,52.0,72,30.09,10.0,SSE,24.2,29.9,N/A,,Partly Cloudy,160,2013-02-19 04:56:00
11:56 PM,62.1,54.0,75,30.06,10.0,SSE,21.9,-,N/A,,Mostly Cloudy,160,2013-02-19 05:56:00